User: anonymous   Login
Location: Brainerd
(46.3580°N, 94.2010°W)
Time: 20:54:48
(UTC-06:00)
Language:

CZ-4C R/B - Orbit

View from above orbital plane
View from above orbital plane
View from above satellite
View from above satellite

Ground track
Ground track

The orbit data is extracted from the following two-line orbital elements,

1 32290U 07055B   16340.81970331  .00002286  00000-0  67400-4 0  9998
2 32290  97.5270  77.4960 0070463 101.1068 259.8108 15.33674162502174
Epoch (UTC): 05 December 2016 19:40:22
Eccentricity: 0.0070463
inclination: 97.5270°
perigee height: 416 km
apogee height: 513 km
right ascension of ascending node: 77.4960°
argument of perigee: 101.1068°
revolutions per day: 15.33674162
mean anomaly at epoch: 259.8108°
orbit number at epoch: 50217

The dashed part of the orbit path shows where the satellite is in the earth's shadow,  

DLR